Weather History for Morgantown, WV

Change the Weather History Date:

Thursday, November 25, 2010

  Actual Average Record
Temperature  
Mean Temperature 51 °F 42 °F  
Max Temperature 63 °F 50 °F 75 °F (1979)
Min Temperature 39 °F 33 °F 6 °F (1950)
Degree Days  
Heating Degree Days 14 24  
Month to date heating degree days 475 482  
Since 1 July heating degree days 835 924  
Cooling Degree Days 0 0  
Month to date cooling degree days 0 0  
Year to date cooling degree days 1195 813  
Growing Degree Days 1 (Base 50)    
Moisture  
Dew Point 46 °F    
Average Humidity 78    
Maximum Humidity 100    
Minimum Humidity 56    
Precipitation  
Precipitation 0.46 in 0.11 in 1.31 in (1964)
Month to date precipitation 2.58 2.87  
Year to date precipitation 36.46 38.33  
Sea Level Pressure  
Sea Level Pressure 29.84 in    
Wind  
Wind Speed 6 mph (SSE)    
Max Wind Speed 18 mph    
Max Gust Speed 28 mph    
Visibility 8 miles    
Events Rain    
T = Trace of Precipitation, MM = Missing Value Source: NWS Daily Summary

Daily Weather History Graph

Daily Weather History Graph

Search for Another Location

Airport:

Trip Planner

Search our weather history database for the weather conditions in past years. The results will help you decide how hot, cold, wet, or windy it might be!

Date:

Astronomy

Nov. 25, 2010 Rise Set
Actual Time 7:15 AM EST 4:58 PM EST
Civil Twilight 6:45 AM EST 5:27 PM EST
Nautical Twilight 6:12 AM EST 6:00 PM EST
Astronomical Twilight 5:40 AM EST 6:32 PM EST
Moon 8:53 PM EST (11/25) 10:44 AM EST (11/25)
Length of Visible Light 10h 41m
Length of Day
9h 42m
Waning Gibbous, 83% of the Moon is Illuminated
Nov 25
Waning Gibbous
Nov 28
Last Quarter
Dec 5
New
Dec 13
First Quarter
Dec 21
Full

Hourly Weather History & Observations

Time (EST) Temp. Windchill Dew Point Humidity Pressure Visibility Wind Dir Wind Speed Gust Speed Precip Events Conditions
12:53 AM 39.0 °F 34.8 °F 33.1 °F 79% 30.09 in 4.0 mi ESE 5.8 mph - 0.02 in Rain Light Rain
1:53 AM 39.0 °F 32.8 °F 35.1 °F 86% 30.04 in 3.0 mi ESE 9.2 mph - 0.11 in Rain Rain
2:53 AM 39.9 °F 35.8 °F 35.1 °F 83% 30.03 in 7.0 mi Variable 5.8 mph - 0.10 in Rain Light Rain
3:53 AM 39.9 °F 34.5 °F 35.1 °F 83% 30.01 in 5.0 mi ESE 8.1 mph 20.7 mph 0.02 in Rain Rain
4:53 AM 41.0 °F 33.5 °F 36.0 °F 82% 29.96 in 10.0 mi ESE 13.8 mph 26.5 mph 0.07 in Rain Light Rain
5:53 AM 44.1 °F 38.6 °F 37.0 °F 76% 29.95 in 10.0 mi SE 10.4 mph - 0.00 in   Overcast
6:53 AM 48.0 °F - 37.9 °F 68% 29.94 in 10.0 mi SE 5.8 mph - N/A   Overcast
7:53 AM 45.0 °F - 39.9 °F 82% 29.94 in 10.0 mi Calm Calm - N/A   Overcast
8:53 AM 48.9 °F - 41.0 °F 74% 29.93 in 10.0 mi SE 6.9 mph - 0.00 in   Overcast
9:53 AM 55.9 °F - 45.0 °F 67% 29.91 in 10.0 mi SSE 6.9 mph - N/A   Overcast
10:53 AM 60.1 °F - 46.9 °F 62% 29.89 in 10.0 mi SSW 5.8 mph - N/A   Overcast
11:53 AM 59.0 °F - 50.0 °F 72% 29.86 in 10.0 mi SSW 6.9 mph - 0.01 in Rain Light Rain
12:53 PM 61.0 °F - 48.0 °F 62% 29.85 in 10.0 mi SW 9.2 mph - 0.00 in   Overcast
1:53 PM 57.9 °F - 50.0 °F 75% 29.85 in 10.0 mi Calm Calm - 0.03 in Rain Light Rain
2:53 PM 57.0 °F - 50.0 °F 77% 29.86 in 7.0 mi Variable 3.5 mph - 0.00 in   Overcast
3:01 PM 57.2 °F - 51.8 °F 82% 29.85 in 2.5 mi Variable 5.8 mph - N/A   Haze
3:14 PM 55.4 °F - 51.8 °F 88% 29.85 in 2.0 mi SSW 5.8 mph - 0.01 in Rain Light Rain
3:29 PM 55.4 °F - 53.6 °F 94% 29.84 in 4.0 mi South 5.8 mph - 0.01 in   Overcast
3:53 PM 55.0 °F - 53.1 °F 93% 29.84 in 6.0 mi Calm Calm - 0.03 in Rain Light Rain
4:53 PM 54.0 °F - 53.1 °F 97% 29.82 in 5.0 mi SE 4.6 mph - 0.02 in Rain Light Rain
5:53 PM 55.0 °F - 52.0 °F 89% 29.75 in 10.0 mi East 4.6 mph - 0.00 in   Overcast
6:53 PM 55.0 °F - 51.1 °F 86% 29.70 in 10.0 mi ESE 8.1 mph - N/A   Mostly Cloudy
7:53 PM 55.9 °F - 48.9 °F 77% 29.66 in 10.0 mi SE 11.5 mph 16.1 mph 0.01 in   Mostly Cloudy
8:53 PM 57.9 °F - 48.0 °F 70% 29.60 in 10.0 mi SSE 11.5 mph - N/A   Overcast
9:53 PM 63.0 °F - 46.9 °F 56% 29.57 in 10.0 mi South 6.9 mph 17.3 mph 0.00 in   Overcast
10:53 PM 59.0 °F - 50.0 °F 72% 29.57 in 10.0 mi Calm Calm - 0.04 in Rain Light Rain
11:53 PM 57.9 °F - 50.0 °F 75% 29.59 in 10.0 mi West 8.1 mph - 0.00 in   Overcast